Weather History for McCook, NE

Change the Weather History Date:

Wednesday, February 26, 2014

  Actual Average Record
Temperature  
Mean Temperature 12 °F 34 °F  
Max Temperature 30 °F 48 °F 74 °F (1933)
Min Temperature -6 °F 20 °F -12 °F (1934)
Degree Days  
Heating Degree Days 52    
Moisture  
Dew Point 4 °F    
Average Humidity 77    
Maximum Humidity 96    
Minimum Humidity 51    
Precipitation  
Precipitation 0.00 in 0.03 in 0.58 in (1958)
Month to date precipitation 0.17 0.57  
Year to date precipitation 0.37 1.08  
Sea Level Pressure  
Sea Level Pressure 30.29 in    
Wind  
Wind Speed 8 mph (West)    
Max Wind Speed 20 mph    
Max Gust Speed 24 mph    
Visibility 9 miles    
Events      
T = Trace of Precipitation, MM = Missing Value Source: NWS Daily Summary

Daily Weather History Graph

Daily Weather History Graph

Search for Another Location

Airport:

Trip Planner

Search our weather history database for the weather conditions in past years. The results will help you decide how hot, cold, wet, or windy it might be!

Date:

Astronomy

Feb. 26, 2014 Rise Set
Actual Time 7:20 AM CST 6:30 PM CST
Civil Twilight 6:52 AM CST 6:58 PM CST
Nautical Twilight 6:21 AM CST 7:29 PM CST
Astronomical Twilight 5:50 AM CST 8:01 PM CST
Moon 5:08 AM CST (2/26) 3:47 PM CST (2/26)
Length of Visible Light 12h 05m
Length of Day
11h 10m
Waning Crescent, 10% of the Moon is Illuminated
Feb 26
Waning Crescent
Mar 1
New
Mar 8
First Quarter
Mar 16
Full
Mar 23
Last Quarter

Hourly Weather History & Observations

Time (CST) Temp. Windchill Dew Point Humidity Pressure Visibility Wind Dir Wind Speed Gust Speed Precip Events Conditions
12:53 AM 1.9 °F -11.8 °F 1.0 °F 96% 30.60 in 10.0 mi West 8.1 mph - N/A   Clear
1:53 AM 1.0 °F -14.9 °F -2.0 °F 87% 30.57 in 10.0 mi West 10.4 mph - N/A   Partly Cloudy
2:53 AM -0.0 °F -11.6 °F -2.9 °F 88% 30.53 in 10.0 mi West 5.8 mph - N/A   Clear
3:53 AM -0.0 °F -14.2 °F -2.9 °F 88% 30.46 in 10.0 mi WSW 8.1 mph - N/A   Clear
4:53 AM -2.0 °F -12.2 °F -6.0 °F 83% 30.44 in 10.0 mi WSW 4.6 mph - N/A   Clear
5:53 AM -0.9 °F -12.7 °F -5.1 °F 83% 30.42 in 9.0 mi WSW 5.8 mph - N/A   Clear
6:49 AM -5.8 °F -19.9 °F -7.6 °F 92% 30.24 in 10.0 mi WSW 6.9 mph - N/A   Partly Cloudy
6:53 AM -5.1 °F -20.4 °F -8.0 °F 87% 30.43 in 10.0 mi WSW 8.1 mph - N/A   Partly Cloudy
7:53 AM -4.0 °F -17.8 °F -8.0 °F 83% 30.40 in 7.0 mi WSW 6.9 mph - N/A   Clear
8:53 AM 1.0 °F - -0.9 °F 91% 30.38 in 4.0 mi Calm Calm - N/A   Clear
8:56 AM 1.9 °F -5.6 °F -0.9 °F 88% 30.22 in 2.5 mi West 3.5 mph - N/A   Partly Cloudy
9:08 AM 3.0 °F - 1.0 °F 91% 30.21 in 6.0 mi Calm Calm - N/A   Clear
9:53 AM 6.1 °F -0.9 °F 1.9 °F 83% 30.35 in 10.0 mi WSW 3.5 mph - N/A   Clear
10:53 AM 9.0 °F -5.1 °F 3.9 °F 80% 30.32 in 10.0 mi SW 10.4 mph - N/A   Clear
11:53 AM 17.1 °F 2.0 °F 9.0 °F 71% 30.26 in 10.0 mi WSW 16.1 mph - N/A   Clear
12:53 PM 21.9 °F 10.4 °F 12.0 °F 66% 30.23 in 10.0 mi WSW 11.5 mph - N/A   Clear
1:53 PM 25.0 °F 11.7 °F 12.9 °F 60% 30.19 in 10.0 mi WNW 17.3 mph 24.2 mph N/A   Clear
2:53 PM 27.0 °F 15.6 °F 12.0 °F 53% 30.16 in 10.0 mi West 13.8 mph - N/A   Clear
3:53 PM 28.0 °F 14.9 °F 12.0 °F 51% 30.14 in 10.0 mi WNW 19.6 mph - N/A   Clear
4:53 PM 30.0 °F 19.1 °F 14.0 °F 51% 30.14 in 10.0 mi NW 15.0 mph - N/A   Clear
5:53 PM 28.0 °F 18.6 °F 15.1 °F 58% 30.14 in 10.0 mi WNW 10.4 mph - N/A   Clear
6:53 PM 23.0 °F 12.4 °F 12.9 °F 65% 30.15 in 10.0 mi WNW 10.4 mph - N/A   Clear
7:53 PM 21.9 °F 11.7 °F 12.9 °F 68% 30.15 in 10.0 mi West 9.2 mph - N/A   Clear
8:53 PM 19.9 °F 7.9 °F 12.0 °F 71% 30.15 in 10.0 mi WNW 11.5 mph - N/A   Clear
9:53 PM 18.0 °F - 12.0 °F 78% 30.17 in 10.0 mi Calm Calm - N/A   Clear
10:53 PM 15.1 °F 5.2 °F 10.9 °F 84% 30.17 in 10.0 mi SW 6.9 mph - N/A   Clear
11:53 PM 14.0 °F 2.0 °F 10.0 °F 84% 30.14 in 10.0 mi WSW 9.2 mph - N/A   Clear